Location: Highland Meadows Observing Site
(48.4428°N, 114.5461°W)
Time: 00:24:10
(UTC-06:00)

Amateur Radio Satellites - All Passes

Search period start: 29 May 2015 23:54
Search period end: 30 May 2015 23:54
Location: Highland Meadows Observing Site, 48.4428°N, 114.5461°W

Satellite Date Start Highest point End Downlink Frequencies (MHz)
Time Altitude Azimuth
BUGSAT 1 29 May 23:58:06 00:00:24 15° 88° (E) 00:02:52 437.445
ESTCUBE 1 30 May 00:02:06 00:06:36 87° 254° (WSW) 00:11:08 437.505/2401.250
SPROUT 30 May 00:02:19 00:05:56 27° 66° (ENE) 00:09:38 437.525
UWE-3 30 May 00:06:56 00:09:22 14° 274° (W) 00:11:35 435.000/436.395/437.385
FUNcube-1 30 May 00:07:30 00:10:23 16° 272° (W) 00:13:07 145.935
GONETS M04 30 May 00:08:40 00:17:02 46° 69° (ENE) 00:25:23
PCSat 30 May 00:10:40 00:13:54 17° 106° (ESE) 00:17:21 145.827
TISAT 1 30 May 00:12:54 00:16:23 26° 65° (ENE) 00:19:58 437.305
HUMSAT D 30 May 00:15:46 00:19:13 22° 268° (W) 00:22:35 437.325/437.525
ANTELSAT 30 May 00:18:15 00:22:38 68° 102° (ESE) 00:26:54 437.575/2403.000
AISAT 30 May 00:19:48 00:23:56 36° 264° (W) 00:28:04 437.250
50 SAT 30 May 00:26:01 00:29:25 26° 266° (W) 00:32:46 437.505
QB50P1 30 May 00:32:58 00:37:06 45° 98° (E) 00:41:13 145.935-145.965
POLYITAN 1 30 May 00:36:48 00:41:01 50° 100° (E) 00:45:09 437.675
BEESAT 2 30 May 00:44:12 00:46:34 15° 26° (NNE) 00:49:00 435.950
UKube-1 30 May 00:45:21 00:47:17 12° 273° (W) 00:49:02 .
TIGRISAT 30 May 00:49:35 00:53:56 61° 288° (WNW) 00:58:09 435.000
ISS 30 May 00:52:17 00:55:32 87° 338° (NNW) 00:58:49 145.825
AIST 2 30 May 00:55:45 00:56:53 11° 16° (NNE) 00:58:06 435.215
O/OREOS (USA 219) 30 May 00:58:56 01:03:12 41° 57° (ENE) 01:07:28 437.305
ITUPSAT 1 30 May 01:02:48 01:05:57 18° 60° (ENE) 01:09:14 437.325
NANOSAT C BR1 30 May 01:03:00 01:07:19 89° 263° (W) 01:11:34 145.865
BEESAT 30 May 01:08:01 01:11:26 20° 61° (ENE) 01:14:57 436.000
Cosmos 2499 30 May 01:10:25 01:15:23 20° 58° (ENE) 01:20:35 435.465 / 435.565
UNISAT 6 30 May 01:11:44 01:15:48 37° 292° (WNW) 01:19:45 437.425
CUBEBUG 1 30 May 01:12:51 01:16:17 21° 269° (W) 01:19:38 437.445
QB50P2 30 May 01:13:35 01:17:52 68° 287° (WNW) 01:22:05 145.880/145.840
SWISSCUBE 30 May 01:16:33 01:20:23 25° 63° (ENE) 01:24:18 437.505
DANDE 30 May 01:18:29 01:26:11 58° 267° (W) 01:32:11 436.750
DUCHIFAT 1 30 May 01:24:11 01:28:24 56° 288° (WNW) 01:32:33 145.980
POPSAT HIP 1 30 May 01:25:03 01:29:16 54° 288° (WNW) 01:33:25 437.405
CUSAT 1 30 May 01:28:01 01:34:31 38° 272° (W) 01:39:38 437.405
BEESAT 3 30 May 01:28:15 01:31:48 27° 38° (NE) 01:35:20 437.485
BUGSAT 1 30 May 01:32:06 01:36:22 65° 287° (WNW) 01:40:35 437.445
SPROUT 30 May 01:37:53 01:41:54 36° 264° (W) 01:45:56 437.525
ESTCUBE 1 30 May 01:43:05 01:44:16 11° 276° (W) 01:45:11 437.505/2401.250
TISAT 1 30 May 01:48:03 01:52:01 37° 263° (W) 01:56:01 437.305
PCSat 30 May 01:51:15 01:56:40 87° 301° (WNW) 02:02:10 145.827
ANTELSAT 30 May 01:56:12 01:58:56 16° 300° (WNW) 02:01:31 437.575/2403.000
KKS-1 30 May 01:56:33 01:58:09 12° 56° (ENE) 01:59:57 437.445
GONETS M04 30 May 02:05:42 02:14:01 48° 272° (W) 02:22:11
QB50P1 30 May 02:09:24 02:12:44 22° 296° (WNW) 02:15:57 145.935-145.965
VERMONT LUNAR 30 May 02:10:17 02:12:05 14° 164° (SSE) 02:13:54 437.305
POLYITAN 1 30 May 02:13:26 02:16:36 20° 297° (WNW) 02:19:40 437.675
SO-50 30 May 02:17:37 02:19:16 12° 109° (ESE) 02:21:10 436.795
Oscar 19 30 May 02:21:25 02:25:40 26° 92° (E) 02:29:57 437.125/150
BEESAT 2 30 May 02:21:26 02:25:32 58° 47° (NE) 02:29:33 435.950
ISS 30 May 02:29:00 02:32:10 45° 358° (N) 02:35:20 145.825
AIST 2 30 May 02:33:02 02:36:48 30° 39° (NE) 02:40:34 435.215
ITUPSAT 1 30 May 02:38:38 02:43:23 69° 257° (WSW) 02:48:11 437.325
O/OREOS (USA 219) 30 May 02:38:44 02:42:26 25° 255° (WSW) 02:46:04 437.305
NANOSAT C BR1 30 May 02:40:42 02:42:32 12° 302° (WNW) 02:44:11 145.865
BEESAT 30 May 02:44:11 02:48:53 61° 258° (WSW) 02:53:38 436.000
ITAMSAT 1 30 May 02:44:22 02:46:36 13° 85° (E) 02:49:07 435.822/435.867
STARS 30 May 02:50:12 02:53:40 23° 63° (ENE) 02:57:14 437.465
SWISSCUBE 30 May 02:53:27 02:58:01 46° 261° (W) 03:02:37 437.505
Cosmos 2499 30 May 03:02:34 03:09:40 87° 262° (W) 03:16:52 435.465 / 435.565
DANDE 30 May 03:04:58 03:07:32 12° 289° (WNW) 03:09:31 436.750
BEESAT 3 30 May 03:06:01 03:09:58 47° 238° (WSW) 03:13:51 437.485
PHONESAT 2.4 30 May 03:19:40 03:21:44 15° 163° (SSE) 03:23:50 2401.200-2431.200
KKS-1 30 May 03:29:37 03:34:07 80° 73° (ENE) 03:38:38 437.445
PCSat 30 May 03:36:36 03:40:54 23° 327° (NNW) 03:45:09 145.827
Gurwin Techsat 1B 30 May 03:40:13 03:45:10 38° 96° (E) 03:50:07 435.225
VERMONT LUNAR 30 May 03:46:10 03:48:37 20° 181° (S) 03:51:04 437.305
MOZHAYETS 4 30 May 03:49:17 03:51:39 15° 59° (ENE) 03:54:12
SO-50 30 May 03:54:19 03:59:02 77° 125° (SE) 04:03:56 436.795
BEESAT 2 30 May 04:00:18 04:03:16 19° 246° (WSW) 04:06:05 435.950
Oscar 19 30 May 04:00:20 04:05:19 49° 291° (WNW) 04:10:14 437.125/150
JAS-2 30 May 04:01:26 04:03:03 12° 84° (E) 04:04:59 435.910
ISS 30 May 04:05:34 04:08:50 73° 17° (NNE) 04:12:06 145.825
AIST 2 30 May 04:11:29 04:15:32 44° 239° (WSW) 04:19:30 435.215
HORYU 2 30 May 04:12:24 04:14:15 13° 86° (E) 04:16:19 437.375
ITAMSAT 1 30 May 04:21:44 04:27:01 86° 105° (ESE) 04:32:16 435.822/435.867
STARS 30 May 04:25:36 04:29:53 45° 261° (W) 04:34:12 437.465
AO-7 30 May 04:53:30 05:00:47 33° 93° (E) 05:08:12 29.400- 29.500
PHONESAT 2.4 30 May 04:56:25 04:59:11 22° 179° (S) 05:01:57 2401.200-2431.200
Cosmos 2499 30 May 04:57:29 05:01:51 17° 281° (WNW) 05:05:56 435.465 / 435.565
KKS-1 30 May 05:09:14 05:11:25 13° 274° (W) 05:13:22 437.445
Gurwin Techsat 1B 30 May 05:20:18 05:25:08 35° 295° (WNW) 05:29:54 435.225
VERMONT LUNAR 30 May 05:23:27 05:25:09 14° 197° (SSW) 05:26:49 437.305
MOZHAYETS 4 30 May 05:23:44 05:28:19 84° 256° (WSW) 05:32:55
PCSat 30 May 05:24:54 05:26:26 11° 352° (N) 05:27:55 145.827
SO-50 30 May 05:36:04 05:40:08 26° 328° (NNW) 05:44:14 436.795
CUBESAT XI-V 30 May 05:37:24 05:40:07 16° 59° (ENE) 05:43:00 437.345
ISS 30 May 05:42:14 05:45:04 27° 217° (SW) 05:47:52 145.825
JAS-2 30 May 05:43:58 05:49:11 85° 103° (ESE) 05:54:34 435.910
HORYU 2 30 May 05:47:05 05:51:33 79° 286° (WNW) 05:55:58 437.375
Cosmos 2491 30 May 05:54:10 06:02:02 35° 63° (ENE) 06:09:57 435.465 / 435.565
ITAMSAT 1 30 May 06:02:29 06:05:55 17° 303° (WNW) 06:09:10 435.822/435.867
PHONESAT 2.4 30 May 06:34:27 06:36:39 16° 196° (SSW) 06:38:50 2401.200-2431.200
STRAND 1 30 May 06:42:08 06:46:32 30° 64° (ENE) 06:51:00 437.568
AO-7 30 May 06:45:56 06:54:14 68° 295° (WNW) 07:02:30 29.400- 29.500
YUBILEINY 30 May 06:50:47 06:57:23 26° 80° (E) 07:04:16 435.215
CUTE-I 30 May 07:01:10 07:05:11 22° 90° (E) 07:09:21 437.470
PRISM 30 May 07:03:14 07:07:05 43° 70° (ENE) 07:11:01 437.425
MOZHAYETS 4 30 May 07:05:29 07:06:24 10° 277° (W) 07:07:00
PCSat 30 May 07:09:43 07:12:20 14° 18° (NNE) 07:15:03 145.827
M-CUBED/EXP-1 PRIME 30 May 07:11:14 07:14:53 35° 64° (ENE) 07:18:18 437.505
CUBESAT XI-V 30 May 07:12:25 07:17:02 76° 257° (WSW) 07:21:42 437.345
AUBIESAT-1 30 May 07:15:58 07:19:32 34° 64° (ENE) 07:22:55 437.475
SO-50 30 May 07:20:07 07:22:21 13° 352° (N) 07:24:34 436.795
Cubesat XI-IV 30 May 07:22:25 07:27:12 32° 95° (E) 07:32:02 437.490
HORYU 2 30 May 07:25:54 07:27:30 12° 304° (NW) 07:28:55 437.375
JAS-2 30 May 07:30:35 07:33:46 16° 304° (WNW) 07:36:49 435.910
AIST 1 30 May 07:36:50 07:40:53 35° 72° (ENE) 07:44:58
Cosmos 2491 30 May 07:50:52 07:59:36 65° 267° (W) 08:08:12 435.465 / 435.565
STRAND 1 30 May 08:20:47 08:25:36 42° 262° (W) 08:30:29 437.568
PRISM 30 May 08:39:42 08:42:47 20° 268° (W) 08:45:48 437.425
AO-7 30 May 08:39:52 08:45:43 21° 317° (NW) 08:51:20 29.400- 29.500
CUTE-I 30 May 08:40:27 08:45:45 62° 290° (WNW) 08:51:03 437.470
YUBILEINY 30 May 08:44:36 08:53:23 80° 281° (W) 09:02:10 435.215
M-CUBED/EXP-1 PRIME 30 May 08:46:33 08:49:49 23° 259° (W) 08:52:50 437.505
AUBIESAT-1 30 May 08:51:10 08:54:24 23° 259° (W) 08:57:25 437.475
PCSat 30 May 08:52:25 08:57:25 36° 43° (NE) 09:02:26 145.827
CANX-2 30 May 09:01:52 09:02:39 11° 85° (E) 09:03:41 2200.000
SO-50 30 May 09:02:05 09:04:53 15° 16° (NNE) 09:07:46 436.795
Cubesat XI-IV 30 May 09:02:23 09:07:26 42° 293° (WNW) 09:12:27 437.490
CUTE 1.7 + AOD 2 30 May 09:05:05 09:05:36 10° 84° (E) 09:06:20 437.475
RS-15 30 May 09:06:22 09:16:29 49° 113° (ESE) 09:27:02 29.354- 29.394
HO-68 30 May 09:13:27 09:18:48 23° 88° (E) 09:24:21 435.675
GOMX 1 30 May 09:14:45 09:19:12 27° 90° (E) 09:23:32 467.674
AIST 1 30 May 09:14:46 09:18:25 25° 271° (W) 09:22:00
SEEDS 30 May 09:20:42 09:22:29 13° 86° (E) 09:24:27 437.485
COMPASS 1 30 May 09:28:04 09:29:40 12° 86° (E) 09:31:28 437.405
BRITE-PL 30 May 09:30:34 09:36:07 55° 98° (E) 09:41:24 437.365/2234.400
Cosmos 2504 30 May 09:33:34 09:39:56 27° 84° (E) 09:46:10 435.465 / 435.565
AAUSAT CUBESAT 2 30 May 09:36:46 09:38:37 13° 87° (E) 09:40:41 437.432
ANTELSAT 30 May 09:46:29 09:48:52 14° 59° (ENE) 09:51:24 437.575/2403.000
Cosmos 2491 30 May 09:50:23 09:54:49 14° 288° (WNW) 09:58:42 435.465 / 435.565
DOVE 4 30 May 09:57:16 10:02:06 41° 95° (E) 10:06:39 437.250
UWE-3 30 May 10:15:55 10:17:37 12° 85° (E) 10:19:30 435.000/436.395/437.385
TIGRISAT 30 May 10:15:57 10:19:40 25° 64° (ENE) 10:23:24 435.000
CUTE-I 30 May 10:22:48 10:24:54 12° 308° (NW) 10:26:46 437.470
NANOSAT C BR1 30 May 10:25:31 10:27:49 15° 60° (ENE) 10:30:17 145.865
CANX-2 30 May 10:35:02 10:39:17 85° 285° (WNW) 10:43:30 2200.000
QB50P2 30 May 10:35:39 10:38:35 19° 62° (ENE) 10:41:39 145.880/145.840
PCSat 30 May 10:35:48 10:41:02 48° 244° (WSW) 10:46:12 145.827
UNISAT 6 30 May 10:37:23 10:41:41 38° 68° (ENE) 10:45:57 437.425
CUTE 1.7 + AOD 2 30 May 10:38:00 10:42:15 88° 277° (W) 10:46:27 437.475
SO-50 30 May 10:42:09 10:46:48 38° 39° (NE) 10:51:26 436.795
CINEMA 3 30 May 10:44:55 10:49:36 56° 99° (E) 10:54:01 145.822/145.860
DUCHIFAT 1 30 May 10:45:23 10:48:35 21° 64° (ENE) 10:51:54 145.980
YUBILEINY 30 May 10:45:29 10:51:57 21° 306° (NW) 10:58:07 435.215
POPSAT HIP 1 30 May 10:46:30 10:49:49 22° 64° (ENE) 10:53:13 437.405
BUGSAT 1 30 May 10:51:46 10:54:34 18° 62° (ENE) 10:57:30 437.445
GOMX 1 30 May 10:52:25 10:57:37 49° 291° (WNW) 11:02:30 467.674
SEEDS 30 May 10:54:40 10:58:51 71° 286° (WNW) 11:03:00 437.485
ZACube-1 30 May 10:56:36 11:00:08 25° 92° (E) 11:03:40 437.345
Oscar 11 30 May 10:59:57 11:04:05 44° 98° (E) 11:08:13 145.826/435.025
HO-68 30 May 11:00:13 11:07:25 80° 290° (WNW) 11:14:34 435.675
COMPASS 1 30 May 11:01:46 11:05:57 73° 285° (WNW) 11:10:04 437.405
DX 1 30 May 11:05:36 11:08:07 15° 88° (E) 11:10:46 434.975-435.025
BRITE-PL 30 May 11:09:32 11:14:18 28° 298° (WNW) 11:18:48 437.365/2234.400
AAUSAT CUBESAT 2 30 May 11:10:39 11:14:47 68° 286° (WNW) 11:18:53 437.432
CUBEBUG 2 30 May 11:11:11 11:15:32 53° 99° (E) 11:19:45 437.445
DELFI C3 30 May 11:12:30 11:16:22 43° 98° (E) 11:20:13 145.870
RS-15 30 May 11:17:49 11:28:41 63° 319° (NW) 11:39:58 29.354- 29.394
ANTELSAT 30 May 11:20:24 11:25:05 87° 256° (WSW) 11:29:42 437.575/2403.000
Cosmos 2504 30 May 11:24:39 11:32:48 71° 283° (WNW) 11:40:24 435.465 / 435.565
QB50P1 30 May 11:29:02 11:33:14 56° 72° (ENE) 11:37:28 145.935-145.965
POLYITAN 1 30 May 11:33:08 11:37:24 62° 72° (ENE) 11:41:41 437.675
VELOX 1 30 May 11:34:22 11:37:04 16° 88° (E) 11:39:56 145.980
DOVE 4 30 May 11:35:14 11:39:42 30° 296° (WNW) 11:43:55 437.250
FUNcube-1 30 May 11:50:06 11:54:27 83° 103° (ESE) 11:58:40 145.935
UWE-3 30 May 11:50:27 11:54:51 77° 285° (WNW) 11:59:06 435.000/436.395/437.385
TIGRISAT 30 May 11:51:42 11:56:12 46° 262° (W) 12:00:38 435.000
ESTCUBE 1 30 May 11:52:15 11:54:52 15° 88° (E) 11:57:40 437.505/2401.250
HUMSAT D 30 May 11:55:06 11:59:07 45° 98° (E) 12:03:05 437.325/437.525
50 SAT 30 May 11:58:16 12:01:35 27° 94° (E) 12:04:56 437.505
NANOSAT C BR1 30 May 11:58:52 12:03:09 75° 257° (WSW) 12:07:28 145.865
AISAT 30 May 12:06:29 12:10:33 33° 96° (E) 12:14:38 437.250
Oscar 19 30 May 12:08:06 12:08:21 10° 51° (NE) 12:08:51 437.125/150
QB50P2 30 May 12:09:54 12:14:08 56° 260° (W) 12:18:23 145.880/145.840
CANX-2 30 May 12:13:08 12:14:35 11° 302° (WNW) 12:15:51 2200.000
UNISAT 6 30 May 12:14:30 12:18:33 28° 266° (W) 12:22:31 437.425
CUTE 1.7 + AOD 2 30 May 12:15:58 12:17:32 12° 302° (WNW) 12:18:56 437.475
DUCHIFAT 1 30 May 12:20:01 12:24:09 46° 261° (W) 12:28:18 145.980
POPSAT HIP 1 30 May 12:21:19 12:25:27 44° 262° (W) 12:29:36 437.405
SO-50 30 May 12:22:44 12:27:28 44° 240° (WSW) 12:32:06 436.795
CINEMA 3 30 May 12:22:52 12:26:24 21° 299° (WNW) 12:29:42 145.822/145.860
BUGSAT 1 30 May 12:25:32 12:29:39 56° 260° (W) 12:33:52 437.445
UKube-1 30 May 12:25:56 12:30:19 85° 104° (ESE) 12:34:41 .
ZACube-1 30 May 12:32:38 12:36:38 37° 292° (WNW) 12:40:31 437.345
Oscar 11 30 May 12:36:40 12:40:03 22° 296° (WNW) 12:43:20 145.826/435.025
DX 1 30 May 12:40:29 12:44:52 65° 288° (WNW) 12:49:13 434.975-435.025
DELFI C3 30 May 12:48:13 12:51:14 20° 296° (WNW) 12:54:09 145.870
DANDE 30 May 12:48:19 12:55:03 34° 85° (E) 13:02:32 436.750
CUBEBUG 2 30 May 12:48:37 12:51:53 20° 298° (WNW) 12:54:59 437.445
HO-68 30 May 12:49:06 12:54:14 21° 310° (NW) 12:59:10 435.675
CUSAT 1 30 May 12:52:48 13:00:05 44° 90° (E) 13:07:51 437.405
CUBEBUG 1 30 May 12:56:35 13:00:58 55° 100° (E) 13:05:21 437.445
ANTELSAT 30 May 13:01:04 13:02:38 11° 275° (W) 13:03:56 437.575/2403.000
QB50P1 30 May 13:06:36 13:09:30 17° 271° (W) 13:12:16 145.935-145.965
VELOX 1 30 May 13:09:39 13:14:07 64° 287° (WNW) 13:18:33 145.980
POLYITAN 1 30 May 13:11:06 13:13:46 15° 272° (W) 13:16:17 437.675
GONETS M04 30 May 13:14:27 13:22:36 45° 88° (E) 13:30:54
SPROUT 30 May 13:20:41 13:24:30 30° 95° (E) 13:28:20 437.525
Cosmos 2504 30 May 13:22:49 13:27:47 17° 306° (NW) 13:32:16 435.465 / 435.565
ESTCUBE 1 30 May 13:27:45 13:32:16 67° 288° (WNW) 13:36:47 437.505/2401.250
Gurwin Techsat 1B 30 May 13:28:04 13:31:02 16° 56° (NE) 13:34:11 435.225
FUNcube-1 30 May 13:28:05 13:30:11 13° 301° (WNW) 13:32:07 145.935
TISAT 1 30 May 13:28:51 13:32:26 26° 93° (E) 13:36:04 437.305
UWE-3 30 May 13:29:24 13:30:38 11° 304° (NW) 13:31:41 435.000/436.395/437.385
HUMSAT D 30 May 13:31:28 13:34:36 20° 296° (WNW) 13:37:37 437.325/437.525
50 SAT 30 May 13:32:55 13:36:17 28° 293° (WNW) 13:39:35 437.505
RS-15 30 May 13:33:42 13:43:44 36° 351° (N) 13:54:07 29.354- 29.394
Oscar 19 30 May 13:41:39 13:46:42 54° 70° (ENE) 13:51:47 437.125/150
AISAT 30 May 13:43:07 13:47:07 31° 294° (WNW) 13:51:02 437.250
Cosmos 2499 30 May 13:55:15 13:58:34 14° 76° (ENE) 14:02:13 435.465 / 435.565
UKube-1 30 May 14:03:39 14:05:53 14° 302° (WNW) 14:07:57 .
ITAMSAT 1 30 May 14:05:08 14:09:33 30° 63° (ENE) 14:14:05 435.822/435.867
AO-7 30 May 14:07:50 14:13:04 19° 41° (NE) 14:18:34 29.400- 29.500
JAS-2 30 May 14:19:48 14:21:21 11° 52° (NE) 14:23:08 435.910
DANDE 30 May 14:30:00 14:37:47 68° 286° (WNW) 14:46:25 436.750
CUBEBUG 1 30 May 14:33:43 14:37:00 20° 298° (WNW) 14:40:10 437.445
CUSAT 1 30 May 14:34:57 14:42:43 53° 290° (WNW) 14:50:49 437.405
ITUPSAT 1 30 May 14:35:57 14:39:44 23° 92° (E) 14:43:37 437.325
BEESAT 30 May 14:40:56 14:44:55 26° 93° (E) 14:48:58 436.000
SWISSCUBE 30 May 14:49:53 14:54:13 34° 96° (E) 14:58:35 437.505
SPROUT 30 May 14:56:42 15:00:36 32° 293° (WNW) 15:04:25 437.525
TISAT 1 30 May 15:04:23 15:08:18 35° 292° (WNW) 15:12:10 437.305
Gurwin Techsat 1B 30 May 15:05:00 15:10:18 84° 76° (ENE) 15:15:40 435.225
ESTCUBE 1 30 May 15:07:31 15:08:22 10° 305° (NW) 15:09:00 437.505/2401.250
GONETS M04 30 May 15:10:57 15:19:30 49° 290° (WNW) 15:28:00
HORYU 2 30 May 15:13:45 15:17:00 21° 62° (ENE) 15:20:21 437.375
O/OREOS (USA 219) 30 May 15:15:47 15:19:15 23° 104° (ESE) 15:22:48 437.305
KKS-1 30 May 15:19:05 15:20:40 12° 86° (E) 15:22:29 437.445
Oscar 19 30 May 15:22:12 15:26:25 24° 269° (W) 15:30:32 437.125/150
Cosmos 2499 30 May 15:42:44 15:50:35 69° 95° (E) 15:57:55 435.465 / 435.565
ITAMSAT 1 30 May 15:43:59 15:48:55 44° 262° (W) 15:53:54 435.822/435.867
RS-15 30 May 15:49:04 15:59:42 43° 24° (NNE) 16:10:52 29.354- 29.394
AO-7 30 May 15:56:17 16:04:23 62° 63° (ENE) 16:12:35 29.400- 29.500
JAS-2 30 May 15:59:28 16:05:36 57° 70° (ENE) 16:11:07 435.910
STARS 30 May 16:11:50 16:15:28 25° 93° (E) 16:19:10 437.465
ITUPSAT 1 30 May 16:13:17 16:17:55 48° 291° (WNW) 16:22:31 437.325
DANDE 30 May 16:16:57 16:22:54 20° 310° (NW) 16:28:46 436.750
BEESAT 30 May 16:18:26 16:22:57 43° 292° (WNW) 16:27:27 436.000
CUSAT 1 30 May 16:22:45 16:27:34 16° 314° (NW) 16:32:02 437.405
SWISSCUBE 30 May 16:27:46 16:32:04 34° 294° (WNW) 16:36:20 437.505
Gurwin Techsat 1B 30 May 16:47:53 16:51:04 15° 274° (W) 16:54:03 435.225
HORYU 2 30 May 16:48:56 16:53:19 53° 260° (W) 16:57:44 437.375
KKS-1 30 May 16:53:30 16:58:01 85° 285° (WNW) 17:02:29 437.445
O/OREOS (USA 219) 30 May 16:54:04 16:58:25 46° 302° (WNW) 17:02:46 437.305
YUBILEINY 30 May 16:54:40 16:59:42 17° 48° (NE) 17:05:05 435.215
BEESAT 3 30 May 17:04:25 17:05:57 12° 111° (ESE) 17:07:42 437.485
Cubesat XI-IV 30 May 17:11:30 17:14:06 14° 54° (NE) 17:16:55 437.490
GONETS M04 30 May 17:15:24 17:19:17 13° 318° (NW) 17:22:42
MOZHAYETS 4 30 May 17:15:58 17:19:03 18° 89° (E) 17:22:16
Cosmos 2499 30 May 17:37:50 17:44:25 28° 297° (WNW) 17:50:31 435.465 / 435.565
JAS-2 30 May 17:45:48 17:51:03 26° 267° (W) 17:55:46 435.910
STARS 30 May 17:47:55 17:52:04 39° 292° (WNW) 17:56:10 437.465
AO-7 30 May 17:50:07 17:57:41 37° 265° (W) 18:05:11 29.400- 29.500
BEESAT 2 30 May 17:56:26 18:00:04 31° 118° (ESE) 18:03:46 435.950
RS-15 30 May 18:02:07 18:13:44 89° 58° (ENE) 18:25:51 29.354- 29.394
AIST 2 30 May 18:14:06 18:16:37 16° 112° (ESE) 18:19:18 435.215
CUTE-I 30 May 18:26:27 18:31:33 50° 69° (ENE) 18:36:43 437.470
KKS-1 30 May 18:31:59 18:34:00 13° 303° (WNW) 18:35:50 437.445
BEESAT 3 30 May 18:39:16 18:43:22 88° 307° (NW) 18:47:31 437.485
Cubesat XI-IV 30 May 18:48:07 18:53:24 75° 73° (ENE) 18:58:46 437.490
YUBILEINY 30 May 18:50:09 18:58:47 64° 75° (ENE) 19:07:26 435.215
MOZHAYETS 4 30 May 18:52:12 18:56:42 58° 288° (WNW) 19:01:12
Cosmos 2491 30 May 19:00:56 19:08:23 33° 83° (E) 19:16:04 435.465 / 435.565
CUBESAT XI-V 30 May 19:05:55 19:09:28 21° 90° (E) 19:13:08 437.345
BRITE-PL 30 May 19:08:42 19:11:58 17° 56° (NE) 19:15:28 437.365/2234.400
Cosmos 2504 30 May 19:21:58 19:23:48 11° 46° (NE) 19:26:01 435.465 / 435.565
DOVE 4 30 May 19:32:08 19:33:56 12° 54° (NE) 19:35:59 437.250
BEESAT 2 30 May 19:34:12 19:38:06 38° 318° (NW) 19:42:00 435.950
HO-68 30 May 19:46:23 19:52:12 28° 55° (NE) 19:58:08 435.675
AIST 2 30 May 19:50:27 19:54:44 74° 310° (NW) 19:59:02 435.215
CANX-2 30 May 19:58:00 20:00:11 14° 60° (ENE) 20:02:31 2200.000
CUTE 1.7 + AOD 2 30 May 20:00:58 20:03:05 14° 60° (ENE) 20:05:20 437.475
CUTE-I 30 May 20:07:26 20:11:56 27° 268° (W) 20:16:22 437.470
AIST 1 30 May 20:11:32 20:14:15 17° 86° (E) 20:17:09
RS-15 30 May 20:15:24 20:25:03 30° 254° (WSW) 20:34:36 29.354- 29.394
CINEMA 3 30 May 20:15:34 20:18:00 14° 57° (ENE) 20:20:37 145.822/145.860
SEEDS 30 May 20:16:23 20:18:55 16° 62° (ENE) 20:21:34 437.485
PRISM 30 May 20:16:55 20:20:52 41° 98° (E) 20:24:52 437.425
BEESAT 3 30 May 20:18:59 20:21:57 18° 329° (NNW) 20:24:52 437.485
COMPASS 1 30 May 20:22:56 20:25:18 15° 61° (ENE) 20:27:49 437.405
M-CUBED/EXP-1 PRIME 30 May 20:24:50 20:25:49 11° 95° (E) 20:26:58 437.505
GOMX 1 30 May 20:25:39 20:30:37 42° 68° (ENE) 20:35:49 467.674
STRAND 1 30 May 20:27:03 20:32:03 49° 99° (E) 20:37:03 437.568
AUBIESAT-1 30 May 20:29:04 20:29:52 11° 95° (E) 20:30:50 437.475
Cubesat XI-IV 30 May 20:30:35 20:34:11 18° 272° (W) 20:37:38 437.490
AAUSAT CUBESAT 2 30 May 20:31:16 20:33:44 16° 62° (ENE) 20:36:21 437.432
CUBEBUG 2 30 May 20:39:40 20:41:09 12° 57° (ENE) 20:42:51 437.445
CUBESAT XI-V 30 May 20:42:40 20:47:15 51° 289° (WNW) 20:51:48 437.345
BRITE-PL 30 May 20:44:19 20:49:38 84° 77° (ENE) 20:55:20 437.365/2234.400
YUBILEINY 30 May 20:47:37 20:55:10 33° 276° (W) 21:02:30 435.215
Cosmos 2491 30 May 20:56:01 21:04:47 65° 285° (WNW) 21:13:36 435.465 / 435.565
DOVE 4 30 May 21:05:33 21:10:43 62° 72° (ENE) 21:16:01 437.250
Cosmos 2504 30 May 21:12:24 21:19:25 52° 73° (ENE) 21:26:26 435.465 / 435.565
FUNcube-1 30 May 21:15:14 21:17:43 15° 60° (ENE) 21:20:21 145.935
BEESAT 2 30 May 21:15:40 21:17:19 12° 340° (NNW) 21:18:54 435.950
UWE-3 30 May 21:15:57 21:19:10 19° 62° (ENE) 21:22:29 435.000/436.395/437.385
AIST 2 30 May 21:31:05 21:34:03 18° 332° (NNW) 21:36:57 435.215
CANX-2 30 May 21:31:21 21:35:37 75° 257° (WSW) 21:39:52 2200.000
HO-68 30 May 21:32:11 21:39:23 75° 255° (WSW) 21:46:36 435.675
CUTE 1.7 + AOD 2 30 May 21:34:14 21:38:29 77° 257° (WSW) 21:42:45 437.475
AIST 1 30 May 21:47:23 21:51:33 50° 284° (WNW) 21:55:47
CINEMA 3 30 May 21:49:26 21:54:29 79° 73° (ENE) 21:59:31 145.822/145.860
SEEDS 30 May 21:50:07 21:54:18 63° 259° (W) 21:58:30 437.485
UKube-1 30 May 21:50:20 21:52:53 16° 60° (ENE) 21:55:35 .
PRISM 30 May 21:52:50 21:56:08 22° 296° (WNW) 21:59:21 437.425
ZACube-1 30 May 21:55:46 21:59:51 33° 68° (ENE) 22:03:57 437.345
COMPASS 1 30 May 21:56:23 22:00:32 66° 258° (WSW) 22:04:43 437.405
M-CUBED/EXP-1 PRIME 30 May 21:57:51 22:01:06 51° 294° (WNW) 22:04:20 437.505
Oscar 11 30 May 21:58:08 22:02:22 55° 71° (ENE) 22:06:36 145.826/435.025
AUBIESAT-1 30 May 22:01:50 22:05:05 54° 293° (WNW) 22:08:21 437.475
DELFI C3 30 May 22:03:20 22:07:10 44° 71° (ENE) 22:11:01 145.870
GOMX 1 30 May 22:04:02 22:08:50 33° 267° (W) 22:13:46 467.674
DX 1 30 May 22:04:35 22:07:56 22° 63° (ENE) 22:11:23 434.975-435.025
AAUSAT CUBESAT 2 30 May 22:04:49 22:08:57 62° 259° (W) 22:13:04 437.432
STRAND 1 30 May 22:06:43 22:11:03 27° 298° (WNW) 22:15:18 437.568
CUBEBUG 2 30 May 22:12:21 22:17:06 71° 74° (ENE) 22:21:49 437.445
CUBEBUG 1 30 May 22:24:02 22:24:54 11° 56° (NE) 22:25:57 437.445
ISS 30 May 22:25:02 22:26:22 12° 136° (SE) 22:27:48 145.825
BRITE-PL 30 May 22:25:32 22:29:00 17° 276° (W) 22:32:21 437.365/2234.400
VELOX 1 30 May 22:35:22 22:38:52 24° 64° (ENE) 22:42:29 145.980
DOVE 4 30 May 22:44:51 22:48:56 22° 272° (W) 22:52:57 437.250
50 SAT 30 May 22:46:27 22:49:51 28° 67° (ENE) 22:53:17 437.505
FUNcube-1 30 May 22:48:56 22:53:31 80° 257° (WSW) 22:58:04 145.935
HUMSAT D 30 May 22:50:08 22:54:19 53° 72° (ENE) 22:58:31 437.325/437.525
UWE-3 30 May 22:50:40 22:55:19 62° 259° (W) 22:59:56 435.000/436.395/437.385
ESTCUBE 1 30 May 22:55:21 22:58:50 23° 63° (ENE) 23:02:25 437.505/2401.250
Cosmos 2491 30 May 22:58:18 23:03:57 17° 312° (NW) 23:09:13 435.465 / 435.565
Cosmos 2504 30 May 23:06:14 23:12:32 33° 274° (W) 23:18:42 435.465 / 435.565
AISAT 30 May 23:07:41 23:11:57 47° 70° (ENE) 23:16:18 437.250
ANTELSAT 30 May 23:10:13 23:12:35 15° 87° (E) 23:15:05 437.575/2403.000
GONETS M04 30 May 23:19:40 23:26:55 28° 59° (ENE) 23:34:17
UKube-1 30 May 23:24:14 23:28:33 70° 257° (WSW) 23:32:54 .
HO-68 30 May 23:24:18 23:28:31 15° 277° (W) 23:32:20 435.675
DANDE 30 May 23:26:26 23:33:20 33° 60° (ENE) 23:39:05 436.750
CUSAT 1 30 May 23:28:30 23:35:08 38° 63° (ENE) 23:40:26 437.405
CINEMA 3 30 May 23:29:14 23:32:19 16° 274° (W) 23:35:12 145.822/145.860
ZACube-1 30 May 23:32:06 23:36:13 31° 266° (W) 23:40:15 437.345
Oscar 11 30 May 23:35:59 23:38:56 17° 271° (W) 23:41:45 145.826/435.025
DELFI C3 30 May 23:39:37 23:42:31 18° 269° (W) 23:45:20 145.870
DX 1 30 May 23:39:43 23:43:55 46° 261° (W) 23:48:11 434.975-435.025
TIGRISAT 30 May 23:40:00 23:43:43 27° 93° (E) 23:47:26 435.000
BEESAT 3 30 May 23:40:42 23:41:24 10° 16° (NNE) 23:42:09 437.485
PCSat 30 May 23:41:30 23:43:22 12° 104° (ESE) 23:45:32 145.827
NANOSAT C BR1 30 May 23:41:32 23:43:44 14° 87° (E) 23:46:05 145.865
O/OREOS (USA 219) 30 May 23:42:41 23:45:09 15° 42° (NE) 23:47:44 437.305
